DW2149 Weather Reports


Display with metric or nautical units.
time (UTC)temp
F
wind
direction
speed
MPH
gust
MPH
rain 1hr
in
rain 24hr
in
rain mn
in
humidity
%
barometer
mb
20260505213825 49 239 0.0 0.0 0.00 0.24 0.12 86 1015.0
20260505213619 49 239 0.0 0.0 0.00 0.24 0.12 86 1015.1
20260505213413 49 239 0.0 0.0 0.00 0.24 0.12 86 1015.1
20260505213200 49 239 0.0 0.0 0.00 0.24 0.12 85 1015.1
20260505212955 49 239 0.0 1.0 0.00 0.24 0.12 85 1015.2
20260505212600 49 239 0.0 0.0 0.00 0.24 0.12 85 1015.1
20260505212354 49 239 0.0 0.0 0.00 0.24 0.12 85 1015.1
20260505211814 49 239 0.0 0.0 0.00 0.24 0.12 85 1015.1
20260505211420 49 239 0.0 1.0 0.00 0.24 0.12 85 1015.1
20260505211218 49 239 0.0 0.0 0.00 0.24 0.12 85 1015.2
20260505210824 49 239 0.0 1.0 0.00 0.24 0.12 85 1015.1
20260505210435 49 239 0.0 0.0 0.00 0.24 0.12 85 1015.1
20260505210224 49 239 0.0 0.0 0.00 0.24 0.12 85 1015.0
20260505205500 50 239 0.0 0.0 0.00 0.24 0.12 85 1014.8
20260505205251 50 239 0.0 0.0 0.00 0.24 0.12 85 1014.8
20260505205040 50 239 0.0 0.0 0.00 0.24 0.12 85 1014.9
20260505204830 50 239 0.0 0.0 0.00 0.24 0.12 85 1014.9
20260505204624 50 239 0.0 3.0 0.00 0.24 0.12 85 1014.8
20260505204230 50 239 0.0 2.0 0.00 0.24 0.12 85 1014.8
20260505204019 50 238 0.0 0.0 0.00 0.24 0.12 85 1014.8
20260505203623 50 238 0.0 3.0 0.00 0.24 0.12 85 1014.7
20260505203419 50 244 0.0 0.0 0.00 0.24 0.12 85 1014.7
20260505203213 50 244 0.0 0.0 0.00 0.24 0.12 85 1014.7
20260505203004 50 244 0.0 2.0 0.00 0.24 0.12 85 1014.7
20260505202755 50 242 0.0 0.0 0.00 0.24 0.12 85 1014.8
20260505202546 50 242 0.0 0.0 0.00 0.24 0.12 85 1014.8
20260505202336 50 242 0.0 1.0 0.00 0.26 0.12 85 1014.8
20260505202127 50 242 0.0 0.0 0.00 0.26 0.12 85 1014.8
20260505201921 50 242 0.0 0.0 0.00 0.26 0.12 85 1014.7
20260505201713 50 242 0.0 2.0 0.00 0.26 0.12 85 1014.8
20260505201503 50 242 0.0 2.0 0.00 0.26 0.12 85 1014.7
20260505201250 50 242 0.0 2.0 0.00 0.26 0.12 85 1014.8
20260505201041 50 242 0.0 4.0 0.00 0.26 0.12 85 1014.8
20260505200829 50 196 0.0 3.0 0.00 0.26 0.12 85 1014.9
20260505200621 50 196 0.0 1.0 0.00 0.26 0.12 85 1014.8
20260505200229 50 196 0.0 0.0 0.00 0.26 0.12 85 1014.7
20260505200016 50 196 0.0 2.0 0.00 0.26 0.12 85 1014.8
20260505195807 50 196 0.0 4.0 0.00 0.26 0.12 86 1014.7
20260505195554 50 194 0.0 4.0 0.00 0.26 0.12 86 1014.8
20260505195020 50 219 0.0 0.0 0.00 0.26 0.12 86 1014.7
20260505194815 50 219 0.0 0.0 0.00 0.26 0.12 86 1014.7
20260505194612 50 219 0.0 0.0 0.00 0.26 0.12 86 1014.7
20260505194218 50 219 0.0 0.0 0.00 0.26 0.12 87 1014.9
20260505194007 50 219 0.0 0.0 0.00 0.26 0.12 87 1014.9
20260505193802 50 219 0.0 0.0 0.00 0.26 0.12 87 1014.8
20260505193558 50 219 0.0 0.0 0.00 0.26 0.12 88 1014.8
20260505193347 50 219 0.0 0.0 0.00 0.28 0.12 88 1014.7
20260505193139 50 219 0.0 0.0 0.00 0.28 0.12 88 1014.7
20260505192751 50 219 0.0 0.0 0.00 0.28 0.12 88 1014.7
20260505192547 50 219 0.0 0.0 0.00 0.28 0.12 89 1014.7
20260505192344 50 219 0.0 0.0 0.00 0.29 0.12 89 1014.6
20260505192138 50 219 0.0 0.0 0.00 0.29 0.12 89 1014.7
20260505191931 50 219 0.0 0.0 0.00 0.29 0.12 89 1014.6
20260505191720 50 219 0.0 1.0 0.00 0.29 0.12 89 1014.6
20260505191516 50 219 0.0 1.0 0.00 0.29 0.12 89 1014.6
20260505191308 50 219 0.0 0.0 0.00 0.29 0.12 89 1014.7
20260505190547 49 219 0.0 0.0 0.00 0.31 0.12 90 1014.7
20260505190334 49 219 0.0 0.0 0.00 0.31 0.12 90 1014.7
20260505185943 49 219 0.0 0.0 0.00 0.33 0.12 90 1014.6
20260505185738 49 219 0.0 0.0 0.00 0.33 0.12 90 1014.6
20260505185533 49 219 0.0 0.0 0.00 0.33 0.12 90 1014.6
20260505185322 49 219 0.0 0.0 0.00 0.33 0.12 90 1014.6
20260505185115 49 219 0.0 1.0 0.00 0.33 0.12 90 1014.5
20260505184910 49 219 0.0 0.0 0.00 0.34 0.12 90 1014.5
20260505184704 49 219 0.0 0.0 0.00 0.34 0.12 90 1014.4
20260505184503 49 219 0.0 0.0 0.00 0.34 0.12 90 1014.5
20260505184106 49 219 0.0 0.0 0.00 0.34 0.12 90 1014.5
20260505183859 49 219 0.0 0.0 0.00 0.34 0.12 90 1014.5
20260505183647 49 219 0.0 0.0 0.00 0.34 0.12 90 1014.5
20260505183257 49 219 0.0 0.0 0.00 0.34 0.12 90 1014.5
20260505183054 49 219 0.0 1.0 0.00 0.34 0.12 90 1014.5
20260505182842 49 219 0.0 0.0 0.00 0.34 0.12 90 1014.5
20260505182445 49 219 0.0 0.0 0.00 0.34 0.12 90 1014.4
20260505182243 49 219 0.0 3.0 0.00 0.34 0.12 90 1014.4
20260505182034 49 213 0.0 2.0 0.00 0.34 0.12 90 1014.5
20260505181828 49 213 0.0 2.0 0.00 0.34 0.12 90 1014.5
20260505181624 49 211 0.0 1.0 0.00 0.34 0.12 90 1014.5
20260505181415 49 211 0.0 1.0 0.00 0.34 0.12 90 1014.5
20260505181018 49 211 0.0 0.0 0.00 0.34 0.12 90 1014.4
20260505180806 49 211 0.0 0.0 0.00 0.34 0.12 90 1014.4
20260505180554 49 211 0.0 1.0 0.00 0.34 0.12 90 1014.3
20260505180348 49 211 0.0 1.0 0.00 0.34 0.12 91 1014.2
20260505175954 49 203 0.0 1.0 0.00 0.34 0.12 91 1014.2
20260505175746 49 202 0.0 0.0 0.00 0.34 0.12 91 1014.1
20260505175539 49 202 0.0 0.0 0.00 0.34 0.12 91 1014.1
20260505175334 49 202 0.0 0.0 0.00 0.34 0.12 91 1014.1
20260505175130 49 202 0.0 0.0 0.00 0.34 0.12 91 1014.1
20260505174926 49 202 0.0 0.0 0.00 0.34 0.12 91 1014.1
20260505174719 49 202 0.0 0.0 0.00 0.34 0.12 91 1014.1
20260505174140 48 202 0.0 0.0 0.00 0.34 0.12 91 1014.0
20260505173927 48 202 0.0 0.0 0.00 0.34 0.12 91 1014.0
20260505173722 48 202 0.0 0.0 0.00 0.34 0.12 91 1013.9
20260505173514 48 202 0.0 0.0 0.00 0.34 0.12 91 1013.9
20260505173119 48 202 0.0 0.0 0.00 0.34 0.12 91 1013.8
20260505172916 48 202 0.0 1.0 0.00 0.34 0.12 91 1013.8
20260505172703 48 202 0.0 1.0 0.00 0.34 0.12 91 1013.7
20260505172311 48 202 0.0 0.0 0.00 0.34 0.12 91 1013.8
20260505172103 48 202 0.0 0.0 0.00 0.34 0.12 92 1013.7
20260505171856 48 202 0.0 0.0 0.00 0.34 0.12 92 1013.7
20260505171502 48 202 0.0 0.0 0.00 0.34 0.12 91 1013.7
20260505171256 48 202 0.0 3.0 0.00 0.34 0.12 91 1013.6
20260505170904 48 202 0.0 3.0 0.00 0.34 0.12 91 1013.6
20260505170658 48 221 0.0 2.0 0.00 0.34 0.12 91 1013.6
20260505170456 49 221 0.0 0.0 0.00 0.34 0.12 91 1013.6
20260505170104 49 221 0.0 3.0 0.00 0.34 0.12 92 1013.6
20260505165856 49 223 0.0 3.0 0.00 0.34 0.12 92 1013.6
20260505165643 49 252 0.0 2.0 0.00 0.34 0.12 92 1013.5
20260505165441 48 252 0.0 1.0 0.00 0.34 0.12 92 1013.6
20260505165235 48 252 0.0 0.0 0.00 0.34 0.12 92 1013.6
20260505165031 48 252 0.0 0.0 0.00 0.34 0.12 92 1013.6
20260505164823 48 252 0.0 2.0 0.00 0.34 0.12 92 1013.6
20260505164611 48 254 0.0 1.0 0.00 0.34 0.12 92 1013.6
20260505164404 48 254 0.0 0.0 0.00 0.34 0.12 92 1013.5
20260505164156 48 254 0.0 0.0 0.00 0.34 0.12 92 1013.5
20260505163951 48 254 0.0 0.0 0.00 0.34 0.12 91 1013.5
20260505163414 48 254 0.0 0.0 0.00 0.34 0.12 92 1013.5
20260505163201 48 254 0.0 0.0 0.00 0.34 0.12 92 1013.6
20260505162957 48 254 0.0 1.0 0.00 0.34 0.12 92 1013.6
20260505162752 48 254 0.0 0.0 0.00 0.34 0.12 92 1013.6
20260505162549 48 254 0.0 0.0 0.00 0.34 0.12 91 1013.6
20260505162154 48 254 0.0 3.0 0.00 0.34 0.12 92 1013.5
20260505161944 48 253 0.0 2.0 0.00 0.34 0.12 92 1013.5
20260505161742 48 254 0.0 1.0 0.00 0.34 0.12 91 1013.5
20260505161539 47 254 0.0 1.0 0.00 0.34 0.12 91 1013.5
20260505161326 47 254 0.0 2.0 0.00 0.34 0.12 91 1013.5
20260505161123 47 254 0.0 2.0 0.00 0.34 0.12 91 1013.5
20260505160913 47 313 0.0 0.0 0.00 0.34 0.12 91 1013.4
20260505160707 47 313 0.0 0.0 0.00 0.34 0.12 92 1013.4
20260505160318 47 313 0.0 0.0 0.00 0.34 0.12 91 1013.4
20260505160113 47 313 0.0 1.0 0.00 0.34 0.12 91 1013.5
20260505153256 46 313 0.0 1.0 0.00 0.34 0.12 91 1013.3
20260505153050 46 313 0.0 0.0 0.00 0.34 0.12 91 1013.4
20260505152845 46 313 0.0 0.0 0.00 0.36 0.12 91 1013.4
20260505152637 46 313 0.0 0.0 0.00 0.36 0.12 91 1013.4
20260505152431 46 313 0.0 0.0 0.00 0.36 0.12 91 1013.4
20260505152034 46 313 0.0 0.0 0.00 0.36 0.12 91 1013.4
20260505151827 46 313 0.0 0.0 0.00 0.36 0.12 91 1013.4
20260505151436 46 313 0.0 0.0 0.00 0.36 0.12 91 1013.4
20260505151225 46 313 0.0 0.0 0.00 0.36 0.12 91 1013.4
20260505151013 46 313 0.0 0.0 0.00 0.36 0.12 91 1013.3
20260505150625 46 313 0.0 0.0 0.00 0.36 0.12 91 1013.4
20260505150235 46 313 0.0 0.0 0.00 0.36 0.12 91 1013.3
20260505140608 46 316 0.0 0.0 0.00 0.37 0.12 91 1013.0
20260505140406 46 315 0.0 0.0 0.00 0.37 0.12 91 1012.8
20260505140204 46 315 0.0 0.0 0.00 0.37 0.12 91 1012.8
20260505130213 46 315 0.0 0.0 0.05 0.40 0.11 91 1012.6
20260505125019 46 315 0.0 0.0 0.05 0.39 0.10 90 1012.6
20260505124630 46 315 0.0 0.0 0.05 0.39 0.10 90 1012.5
20260505124427 46 315 0.0 0.0 0.06 0.38 0.09 90 1012.5
20260505124225 46 315 0.0 0.0 0.07 0.38 0.09 90 1012.5
20260505124015 46 315 0.0 0.0 0.09 0.38 0.09 90 1012.5
20260505123808 46 315 0.0 0.0 0.11 0.38 0.09 90 1012.5
20260505123558 46 316 0.0 0.0 0.11 0.38 0.09 90 1012.5
20260505123345 46 315 0.0 0.0 0.10 0.37 0.08 90 1012.5
20260505123132 46 315 0.0 0.0 0.10 0.37 0.08 90 1012.5
20260505122927 46 316 0.0 0.0 0.10 0.36 0.08 90 1012.5
20260505122723 46 316 0.0 0.0 0.09 0.36 0.07 90 1012.5
20260505122512 45 316 0.0 0.0 0.09 0.36 0.07 90 1012.5
20260505122300 46 315 0.0 0.0 0.09 0.35 0.07 90 1012.5
20260505121904 45 316 0.0 0.0 0.04 0.35 0.06 90 1012.4
20260505121703 46 316 0.0 0.0 0.04 0.35 0.06 90 1012.3
20260505121453 46 316 0.0 0.0 0.04 0.34 0.05 90 1012.4
20260505121251 46 315 0.0 0.0 0.04 0.34 0.05 90 1012.3
20260505121049 46 316 0.0 0.0 0.04 0.34 0.05 90 1012.4
20260505120840 46 316 0.0 0.0 0.04 0.34 0.05 90 1012.4
20260505120628 46 316 0.0 0.0 0.04 0.34 0.05 90 1012.4
20260505120424 46 315 0.0 0.0 0.04 0.34 0.05 90 1012.4
20260505120222 46 315 0.0 0.0 0.04 0.34 0.05 90 1012.4
20260505120015 46 316 0.0 0.0 0.04 0.33 0.04 90 1012.4
20260505115443 46 315 0.0 0.0 0.05 0.33 0.04 90 1012.5
20260505114908 46 316 0.0 0.0 0.05 0.34 0.04 90 1012.5
20260505114703 46 315 0.0 0.0 0.05 0.34 0.04 90 1012.5
20260505114132 46 315 0.0 0.0 0.04 0.34 0.03 90 1012.5
20260505113745 45 315 0.0 0.0 0.04 0.35 0.03 90 1012.5
20260505113541 46 315 0.0 0.0 0.04 0.35 0.03 90 1012.5
20260505113333 46 316 0.0 0.0 0.00 0.34 0.02 90 1012.5
20260505113121 46 316 0.0 0.0 0.00 0.34 0.02 90 1012.5
20260505112911 46 316 0.0 0.0 0.00 0.34 0.02 90 1012.5
20260505112707 46 316 0.0 0.0 0.00 0.34 0.02 90 1012.5
20260505112504 46 315 0.0 0.0 0.00 0.36 0.02 90 1012.5
20260505112300 46 315 0.0 0.0 0.00 0.36 0.02 90 1012.5
20260505112049 46 316 0.0 0.0 0.00 0.36 0.02 90 1012.5
20260505111838 46 316 0.0 0.0 0.00 0.36 0.02 90 1012.5
20260505111446 46 316 0.0 0.0 0.00 0.36 0.01 90 1012.5
20260505111235 46 316 0.0 0.0 0.00 0.36 0.01 90 1012.5
20260505111027 45 315 0.0 0.0 0.00 0.37 0.01 90 1012.6
20260505110633 46 315 0.0 0.0 0.00 0.37 0.01 90 1012.6
20260505110427 46 316 0.0 0.0 0.00 0.37 0.01 90 1012.5
20260505110219 45 316 0.0 0.0 0.00 0.38 0.01 90 1012.6
20260505102044 46 316 0.0 0.0 0.00 0.37 0.00 90 1012.6
20260505101841 46 316 0.0 0.0 0.00 0.37 0.00 90 1012.6
20260505101640 46 315 0.0 0.0 0.00 0.37 0.00 90 1012.6
20260505101431 46 315 0.0 0.0 0.00 0.37 0.00 90 1012.6
20260505101221 45 315 0.0 0.0 0.00 0.37 0.00 90 1012.6
20260505101009 46 315 0.0 0.0 0.00 0.37 0.00 90 1012.6
20260505100804 46 316 0.0 0.0 0.00 0.37 0.00 90 1012.6
20260505100553 46 315 0.0 0.0 0.00 0.37 0.00 90 1012.6
20260505100344 46 316 0.0 0.0 0.00 0.37 0.00 90 1012.6
20260505100137 46 315 0.0 0.0 0.00 0.37 0.00 90 1012.6
20260505095934 46 315 0.0 0.0 0.00 0.37 0.00 90 1012.6
20260505095724 46 316 0.0 0.0 0.00 0.37 0.00 90 1012.6
20260505095512 46 316 0.0 0.0 0.00 0.37 0.00 90 1012.6
20260505095304 46 316 0.0 0.0 0.00 0.37 0.00 90 1012.7
20260505095051 46 315 0.0 0.0 0.00 0.37 0.00 90 1012.6
20260505094849 46 315 0.0 0.0 0.00 0.37 0.00 90 1012.6
20260505094451 46 315 0.0 0.0 0.00 0.37 0.00 90 1012.7
20260505094246 46 316 0.0 0.0 0.00 0.37 0.00 90 1012.7
20260505093856 46 315 0.0 0.0 0.00 0.37 0.00 90 1012.7
20260505093654 46 315 0.0 0.0 0.00 0.37 0.00 90 1012.6
20260505093120 46 315 0.0 0.0 0.00 0.37 0.00 90 1012.6
20260505092917 46 315 0.0 0.0 0.00 0.37 0.00 90 1012.6
20260505092709 46 316 0.0 0.0 0.00 0.37 0.00 90 1012.7
20260505092501 46 315 0.0 0.0 0.00 0.37 0.00 90 1012.8
20260505092105 46 315 0.0 0.0 0.00 0.37 0.00 90 1012.8
20260505091859 46 316 0.0 0.0 0.00 0.37 0.00 90 1012.8
20260505091649 46 315 0.0 0.0 0.00 0.37 0.00 90 1012.8
20260505091256 46 315 0.0 0.0 0.00 0.37 0.00 90 1012.8
20260505090909 46 315 0.0 0.0 0.00 0.37 0.00 90 1013.0
20260505090657 46 315 0.0 0.0 0.00 0.37 0.00 90 1012.9
20260505090444 46 315 0.0 0.0 0.00 0.37 0.00 90 1012.9
20260505090242 46 315 0.0 0.0 0.00 0.37 0.00 90 1012.9
20260505090032 46 315 0.0 0.0 0.00 0.37 0.00 90 1012.9
20260505085636 46 316 0.0 0.0 0.00 0.37 0.00 90 1012.8
20260505085101 46 316 0.0 0.0 0.00 0.37 0.00 90 1012.9
20260505084849 46 316 0.0 0.0 0.00 0.37 0.00 90 1012.9
20260505084644 46 315 0.0 0.0 0.00 0.37 0.00 90 1013.0
20260505084440 46 315 0.0 0.0 0.00 0.37 0.00 90 1013.0
20260505084229 46 315 0.0 0.0 0.00 0.37 0.00 90 1013.0
20260505084025 46 315 0.0 0.0 0.00 0.37 0.00 90 1013.0
20260505083817 46 315 0.0 0.0 0.00 0.37 0.00 90 1013.1
20260505083607 46 316 0.0 0.0 0.00 0.37 0.00 90 1013.1
20260505083403 46 315 0.0 0.0 0.00 0.37 0.00 90 1013.2
20260505083017 46 315 0.0 0.0 0.00 0.37 0.00 90 1013.2
20260505082815 46 316 0.0 0.0 0.00 0.37 0.00 90 1013.3
20260505082611 46 315 0.0 0.0 0.00 0.37 0.00 90 1013.2
20260505082408 46 315 0.0 0.0 0.00 0.37 0.00 90 1013.2
20260505082201 46 316 0.0 0.0 0.00 0.37 0.00 90 1013.1
20260505081804 46 315 0.0 0.0 0.00 0.37 0.00 90 1013.2
20260505081600 46 315 0.0 0.0 0.00 0.37 0.00 90 1013.2
20260505081209 46 316 0.0 0.0 0.00 0.37 0.00 90 1013.2
20260505081004 46 316 0.0 0.0 0.00 0.37 0.00 90 1013.2
20260505080752 46 315 0.0 0.0 0.00 0.37 0.00 90 1013.2
20260505080545 46 315 0.0 0.0 0.00 0.37 0.00 90 1013.2
20260505080334 46 316 0.0 0.0 0.00 0.37 0.00 90 1013.2
20260505075803 46 315 0.0 0.0 0.00 0.37 0.00 90 1013.3
20260505075559 46 315 0.0 0.0 0.00 0.37 0.00 90 1013.2
20260505075349 46 315 0.0 0.0 0.00 0.37 0.00 90 1013.2
20260505075143 46 316 0.0 0.0 0.00 0.37 0.00 90 1013.2
20260505074749 46 316 0.0 0.0 0.00 0.37 0.00 90 1013.3
20260505074545 46 316 0.0 0.0 0.00 0.37 0.00 90 1013.3
20260505074336 46 315 0.0 0.0 0.00 0.37 0.00 90 1013.3
20260505074126 46 316 0.0 0.0 0.00 0.37 0.00 90 1013.3
20260505073732 46 316 0.0 0.0 0.00 0.37 0.00 90 1013.3
20260505073524 46 315 0.0 0.0 0.00 0.37 0.00 90 1013.3
20260505073316 46 315 0.0 0.0 0.00 0.37 0.00 90 1013.3
20260505073105 46 315 0.0 0.0 0.00 0.37 0.00 90 1013.3
20260505072710 46 315 0.0 0.0 0.00 0.37 0.00 90 1013.3
20260505072501 46 315 0.0 0.0 0.00 0.37 0.00 90 1013.2
20260505072248 46 315 0.0 0.0 0.00 0.37 0.00 90 1013.2
20260505071341 46 316 0.0 0.0 0.00 0.37 0.00 90 1013.2
20260505071134 46 315 0.0 0.0 0.00 0.37 0.00 90 1013.2
20260505070931 46 316 0.0 0.0 0.00 0.37 0.00 90 1013.2
20260505070537 46 315 0.0 0.0 0.00 0.37 0.00 90 1013.2
20260505070330 46 315 0.0 0.0 0.00 0.37 0.00 90 1013.1
20260505070119 46 316 0.0 0.0 0.00 0.37 0.00 90 1013.1
20260505065909 46 316 0.0 0.0 0.00 0.37 0.37 90 1013.1
20260505065657 46 315 0.0 0.0 0.00 0.37 0.37 90 1013.1
20260505065456 46 315 0.0 0.0 0.00 0.37 0.37 90 1013.1
20260505065249 46 315 0.0 0.0 0.00 0.37 0.37 90 1013.1
20260505065039 46 316 0.0 0.0 0.00 0.37 0.37 90 1013.1
20260505064835 46 315 0.0 0.0 0.00 0.37 0.37 90 1013.1
20260505064623 46 315 0.0 0.0 0.00 0.37 0.37 90 1013.0
20260505064420 46 315 0.0 0.0 0.00 0.37 0.37 90 1013.1
20260505064209 46 316 0.0 0.0 0.00 0.37 0.37 90 1013.1
20260505063959 46 315 0.0 0.0 0.00 0.37 0.37 90 1013.1
20260505063751 46 315 0.0 0.0 0.00 0.37 0.37 90 1013.1
20260505063358 46 315 0.0 0.0 0.00 0.37 0.37 90 1013.0
20260505063153 46 315 0.0 0.0 0.00 0.37 0.37 90 1013.1
20260505062944 46 315 0.0 0.0 0.00 0.37 0.37 90 1013.0
20260505062733 46 315 0.0 0.0 0.00 0.37 0.37 90 1013.0
20260505062527 46 316 0.0 0.0 0.00 0.37 0.37 90 1013.0
20260505062319 46 315 0.0 0.0 0.00 0.37 0.37 90 1013.0
20260505062114 46 315 0.0 0.0 0.00 0.37 0.37 90 1013.0
20260505061720 46 315 0.0 0.0 0.00 0.37 0.37 90 1013.0
20260505061509 46 315 0.0 0.0 0.00 0.37 0.37 90 1013.0
20260505061300 46 315 0.0 0.0 0.00 0.37 0.37 90 1013.0
20260505061059 46 316 0.0 0.0 0.00 0.37 0.37 90 1013.0
20260505060847 46 316 0.0 0.0 0.00 0.37 0.37 90 1013.0
20260505060645 47 315 0.0 0.0 0.00 0.37 0.37 90 1013.0
20260505060442 46 315 0.0 0.0 0.00 0.37 0.37 90 1013.1
20260505060233 47 315 0.0 0.0 0.00 0.37 0.37 90 1013.1
20260505055701 47 315 0.0 0.0 0.00 0.37 0.37 90 1013.1
20260505055457 47 315 0.0 0.0 0.00 0.37 0.37 90 1013.1
20260505055255 47 316 0.0 0.0 0.00 0.37 0.37 90 1013.1
20260505054905 47 315 0.0 0.0 0.00 0.37 0.37 90 1013.1
20260505054703 47 316 0.0 0.0 0.00 0.37 0.37 90 1013.1
20260505054456 47 316 0.0 0.0 0.00 0.37 0.37 90 1013.2
20260505054244 47 315 0.0 0.0 0.00 0.37 0.37 90 1013.2
20260505054033 47 315 0.0 0.0 0.00 0.37 0.37 90 1013.3
20260505053828 47 315 0.0 0.0 0.00 0.37 0.37 90 1013.2
20260505053625 47 316 0.0 0.0 0.00 0.37 0.37 90 1013.3
20260505053414 47 315 0.0 0.0 0.00 0.37 0.37 90 1013.3
20260505053024 47 316 0.0 0.0 0.00 0.37 0.37 90 1013.4
20260505052811 47 316 0.0 0.0 0.00 0.37 0.37 90 1013.4
20260505052606 47 316 0.0 0.0 0.00 0.37 0.37 90 1013.5
20260505052402 47 316 0.0 0.0 0.00 0.37 0.37 90 1013.4
20260505052152 47 315 0.0 0.0 0.00 0.37 0.37 90 1013.4
20260505051940 47 315 0.0 0.0 0.00 0.37 0.37 90 1013.4
20260505051737 47 315 0.0 0.0 0.00 0.37 0.37 90 1013.4
20260505051529 47 315 0.0 0.0 0.00 0.37 0.37 90 1013.4
20260505051324 47 316 0.0 0.0 0.00 0.37 0.37 90 1013.4
20260505050935 47 316 0.0 0.0 0.00 0.37 0.37 90 1013.5
20260505050725 47 315 0.0 0.0 0.00 0.37 0.37 90 1013.5
20260505050513 47 315 0.0 0.0 0.00 0.37 0.37 90 1013.5
20260505050309 47 315 0.0 0.0 0.00 0.37 0.37 90 1013.5
20260505050104 47 315 0.0 0.0 0.00 0.37 0.37 90 1013.4
20260505041710 47 315 0.0 0.0 0.00 0.37 0.37 90 1013.2
20260505041458 47 316 0.0 0.0 0.00 0.37 0.37 90 1013.2
20260505041249 47 315 0.0 0.0 0.00 0.37 0.37 90 1013.1
20260505041042 47 315 0.0 0.0 0.00 0.37 0.37 90 1013.1
20260505040836 47 315 0.0 0.0 0.00 0.37 0.37 90 1013.1
20260505040625 47 315 0.0 0.0 0.00 0.37 0.37 90 1013.1
20260505040415 47 315 0.0 0.0 0.00 0.37 0.37 90 1013.0
20260505040021 47 315 0.0 0.0 0.00 0.37 0.37 90 1012.9
20260505035808 47 315 0.0 0.0 0.00 0.37 0.37 90 1012.9
20260505035601 47 315 0.0 0.0 0.00 0.36 0.36 90 1012.9
20260505035207 47 315 0.0 0.0 0.00 0.36 0.36 90 1012.8
20260505034954 47 315 0.0 0.0 0.00 0.36 0.36 90 1012.8
20260505034748 47 316 0.0 0.0 0.00 0.36 0.36 90 1012.8
20260505034543 47 315 0.0 0.0 0.00 0.36 0.36 90 1012.7
20260505034338 47 315 0.0 0.0 0.00 0.36 0.36 90 1012.7
20260505034134 47 316 0.0 0.0 0.00 0.36 0.36 90 1012.7
20260505033925 47 316 0.0 0.0 0.00 0.36 0.36 90 1012.7
20260505033718 47 316 0.0 0.0 0.00 0.36 0.36 90 1012.7
20260505033516 47 315 0.0 0.0 0.00 0.36 0.36 90 1012.8
20260505033312 47 316 0.0 0.0 0.00 0.36 0.36 90 1012.7
20260505033108 47 315 0.0 0.0 0.00 0.36 0.36 90 1012.7
20260505032720 47 315 0.0 0.0 0.00 0.36 0.36 90 1012.6
20260505032507 47 315 0.0 0.0 0.00 0.36 0.36 90 1012.6
20260505032115 47 316 0.0 0.0 0.00 0.36 0.36 90 1012.5
20260505031906 47 316 0.0 0.0 0.00 0.36 0.36 90 1012.5
20260505031702 47 315 0.0 0.0 0.00 0.36 0.36 90 1012.6
20260505031500 47 315 0.0 0.0 0.00 0.36 0.36 90 1012.6
20260505031254 47 316 0.0 0.0 0.00 0.36 0.36 90 1012.6
20260505031052 47 315 0.0 0.0 0.00 0.36 0.36 90 1012.5
20260505030841 47 316 0.0 0.0 0.00 0.36 0.36 90 1012.5
20260505030631 47 315 0.0 0.0 0.00 0.36 0.36 90 1012.5
20260505030424 47 316 0.0 0.0 0.00 0.36 0.36 90 1012.4
20260505030212 47 315 0.0 0.0 0.00 0.36 0.36 90 1012.4
20260505030007 47 315 0.0 0.0 0.00 0.36 0.36 90 1012.3
20260505025757 47 315 0.0 0.0 0.00 0.36 0.36 90 1012.4
20260505025548 47 316 0.0 0.0 0.00 0.36 0.36 90 1012.3
20260505025343 47 315 0.0 0.0 0.00 0.36 0.36 90 1012.4
20260505025141 47 315 0.0 0.0 0.00 0.36 0.36 90 1012.4
20260505024935 47 315 0.0 0.0 0.00 0.36 0.36 90 1012.4
20260505024730 47 315 0.0 1.0 0.00 0.36 0.36 90 1012.4
20260505024525 47 315 0.0 1.0 0.00 0.36 0.36 90 1012.4
20260505024320 47 321 0.0 0.0 0.00 0.36 0.36 90 1012.3
20260505024113 47 321 0.0 0.0 0.00 0.36 0.36 90 1012.3
20260505023901 47 321 0.0 0.0 0.00 0.36 0.36 90 1012.2
20260505023652 47 321 0.0 0.0 0.00 0.36 0.36 90 1012.3
20260505023443 47 321 0.0 0.0 0.00 0.36 0.36 90 1012.3
20260505023237 47 321 0.0 0.0 0.00 0.36 0.36 90 1012.3
20260505023028 47 321 0.0 0.0 0.00 0.36 0.36 90 1012.3
20260505022822 47 321 0.0 0.0 0.00 0.36 0.36 90 1012.2
20260505022616 47 321 0.0 0.0 0.00 0.36 0.36 90 1012.2
20260505022410 47 321 0.0 0.0 0.00 0.36 0.36 90 1012.2
20260505022202 47 321 0.0 0.0 0.00 0.36 0.36 90 1012.2
20260505021807 47 321 0.0 1.0 0.00 0.36 0.36 90 1012.2
20260505021555 47 321 0.0 0.0 0.00 0.36 0.36 90 1012.2
20260505021342 47 322 0.0 0.0 0.00 0.36 0.36 90 1012.1
20260505021136 47 321 0.0 0.0 0.00 0.36 0.36 90 1012.2
20260505020923 47 321 0.0 0.0 0.00 0.36 0.36 90 1012.1
20260505020713 47 321 0.0 0.0 0.00 0.36 0.36 90 1012.2
20260505020509 47 321 0.0 0.0 0.00 0.36 0.36 90 1012.1
20260505020307 47 321 0.0 0.0 0.00 0.36 0.36 90 1012.2
20260505020103 47 321 0.0 0.0 0.00 0.36 0.36 90 1012.2
20260505015853 47 321 0.0 0.0 0.00 0.36 0.36 90 1012.2
20260505015643 47 321 0.0 0.0 0.00 0.36 0.36 90 1012.3
20260505015435 47 321 0.0 0.0 0.00 0.36 0.36 90 1012.2
20260505015233 47 321 0.0 0.0 0.00 0.36 0.36 90 1012.3
20260505014845 47 321 0.0 0.0 0.00 0.36 0.36 90 1012.3
20260505014643 47 321 0.0 0.0 0.00 0.36 0.36 90 1012.3
20260505014434 47 321 0.0 0.0 0.00 0.36 0.36 90 1012.2
20260505014223 47 321 0.0 0.0 0.00 0.36 0.36 90 1012.2
20260505014010 47 321 0.0 0.0 0.00 0.36 0.36 90 1012.3
20260505013806 47 322 0.0 0.0 0.00 0.36 0.36 90 1012.3
20260505013601 47 321 0.0 0.0 0.00 0.36 0.36 90 1012.3
20260505013357 47 322 0.0 0.0 0.00 0.36 0.36 90 1012.3
20260505013149 47 321 0.0 0.0 0.00 0.36 0.36 90 1012.3
20260505012758 47 321 0.0 0.0 0.00 0.35 0.35 90 1012.3
20260505012556 47 322 0.0 0.0 0.00 0.35 0.35 90 1012.4
20260505012352 47 322 0.0 0.0 0.00 0.35 0.35 90 1012.4
20260505012142 47 322 0.0 0.0 0.00 0.35 0.35 90 1012.4
20260505011937 47 322 0.0 0.0 0.00 0.35 0.35 90 1012.4
20260505011733 47 321 0.0 0.0 0.00 0.35 0.35 90 1012.4
20260505011529 47 322 0.0 0.0 0.00 0.35 0.35 90 1012.5
20260505011317 47 322 0.0 0.0 0.00 0.35 0.35 90 1012.5
20260505011113 47 322 0.0 0.0 0.00 0.35 0.35 90 1012.5
20260505010905 47 321 0.0 0.0 0.00 0.35 0.35 90 1012.5
20260505010659 47 322 0.0 0.0 0.00 0.35 0.35 90 1012.5
20260505010449 47 322 0.0 1.0 0.00 0.35 0.35 90 1012.5
20260505010246 47 321 0.0 0.0 0.00 0.35 0.35 90 1012.5
20260505010037 47 321 0.0 0.0 0.00 0.35 0.35 90 1012.4
20260505005829 47 321 0.0 0.0 0.00 0.35 0.35 90 1012.4
20260505005625 47 321 0.0 0.0 0.00 0.35 0.35 90 1012.5
20260505005415 47 321 0.0 0.0 0.00 0.35 0.35 90 1012.4
20260505005213 47 321 0.0 1.0 0.00 0.35 0.35 90 1012.5
20260505005000 47 321 0.0 0.0 0.00 0.35 0.35 90 1012.6
20260505004753 47 321 0.0 0.0 0.00 0.35 0.35 90 1012.6
20260505004549 47 321 0.0 0.0 0.00 0.35 0.35 90 1012.6
20260505004157 47 321 0.0 0.0 0.00 0.35 0.35 90 1012.6
20260505003948 47 321 0.0 0.0 0.00 0.35 0.35 90 1012.6
20260505003743 47 321 0.0 0.0 0.04 0.35 0.35 90 1012.6
20260505003538 47 321 0.0 0.0 0.05 0.35 0.35 90 1012.6
20260505003335 47 321 0.0 0.0 0.05 0.35 0.35 90 1012.6
20260505003134 47 321 0.0 1.0 0.06 0.35 0.35 90 1012.5
20260505002927 47 321 0.0 0.0 0.06 0.35 0.35 90 1012.5
20260505002532 47 321 0.0 0.0 0.06 0.35 0.35 90 1012.5
20260505002321 47 321 0.0 0.0 0.06 0.34 0.35 90 1012.6
20260505002108 47 321 0.0 0.0 0.00 0.34 0.33 90 1012.7
20260505001903 47 321 0.0 0.0 0.00 0.34 0.33 90 1012.5
20260505001507 47 321 0.0 0.0 0.00 0.34 0.33 90 1012.6
20260505001113 47 321 0.0 0.0 0.00 0.33 0.33 90 1012.6
20260505000721 47 321 0.0 2.0 0.00 0.33 0.33 90 1012.6
20260505000517 47 318 0.0 2.0 0.00 0.33 0.33 90 1012.5
20260505000315 47 318 0.0 2.0 0.00 0.33 0.33 90 1012.5
20260505000104 47 317 0.0 2.0 0.00 0.33 0.33 90 1012.5
20260504235706 47 327 0.0 1.0 0.00 0.33 0.33 90 1012.5
20260504235311 47 328 0.0 3.0 0.00 0.33 0.33 90 1012.5
20260504235108 47 327 0.0 2.0 0.00 0.33 0.33 90 1012.5
20260504234859 47 328 0.0 0.0 0.00 0.32 0.32 90 1012.5
20260504234656 47 328 0.0 0.0 0.00 0.32 0.32 90 1012.5
20260504234447 47 329 0.0 0.0 0.04 0.32 0.32 90 1012.5
20260504234237 47 329 0.0 0.0 0.05 0.32 0.32 90 1012.5
20260504234024 47 329 0.0 0.0 0.06 0.32 0.32 90 1012.4
20260504233814 47 329 0.0 1.0 0.06 0.32 0.32 90 1012.5
20260504233602 47 329 0.0 1.0 0.06 0.32 0.32 90 1012.4
20260504233356 47 328 0.0 0.0 0.06 0.32 0.32 90 1012.4
20260504233153 47 328 0.0 3.0 0.06 0.32 0.32 90 1012.4
20260504232949 47 306 0.0 1.0 0.06 0.31 0.31 90 1012.3
20260504232602 47 306 0.0 0.0 0.00 0.31 0.31 90 1012.4
20260504232354 47 306 0.0 1.0 0.00 0.31 0.31 89 1012.4
20260504232151 47 306 0.0 1.0 0.00 0.31 0.31 89 1012.6
20260504231948 47 305 0.0 0.0 0.00 0.30 0.29 89 1012.6
20260504231737 47 305 0.0 2.0 0.00 0.30 0.29 89 1012.6
20260504231350 47 305 0.0 2.0 0.00 0.30 0.29 89 1012.6
20260504230957 47 306 0.0 0.0 0.00 0.30 0.29 89 1012.5
20260504230746 47 306 0.0 0.0 0.00 0.30 0.29 89 1012.4
20260504230544 47 306 0.0 0.0 0.00 0.30 0.29 89 1012.5
20260504230334 47 306 0.0 0.0 0.00 0.30 0.29 89 1012.5
20260504230129 47 306 0.0 3.0 0.00 0.30 0.29 89 1012.5
20260504225924 47 212 0.0 0.0 0.00 0.30 0.29 89 1012.5
20260504225713 47 212 0.0 1.0 0.04 0.29 0.29 89 1012.5
20260504225511 47 211 0.0 0.0 0.04 0.29 0.29 89 1012.6
20260504224936 47 211 0.0 1.0 0.05 0.29 0.29 89 1012.6
20260504224730 47 211 0.0 0.0 0.05 0.29 0.29 89 1012.5
20260504224343 47 211 0.0 1.0 0.05 0.29 0.29 89 1012.5
20260504223809 47 211 0.0 0.0 0.05 0.28 0.28 90 1012.5
20260504223558 47 211 0.0 2.0 0.05 0.28 0.28 90 1012.4
20260504223348 47 212 0.0 0.0 0.05 0.28 0.28 89 1012.4
20260504222950 47 212 0.0 0.0 0.05 0.28 0.28 89 1012.5
20260504222740 47 211 0.0 0.0 0.05 0.27 0.26 90 1012.5
20260504222530 47 212 0.0 0.0 0.05 0.27 0.26 89 1012.6
20260504222138 48 212 0.0 0.0 0.05 0.27 0.26 90 1012.6
20260504221932 47 211 0.0 0.0 0.05 0.27 0.26 89 1012.6
20260504221543 48 212 0.0 1.0 0.05 0.26 0.26 89 1012.6
20260504221341 48 211 0.0 0.0 0.00 0.26 0.26 89 1012.6
20260504221136 48 211 0.0 2.0 0.00 0.26 0.26 89 1012.6
20260504220926 48 211 0.0 0.0 0.00 0.26 0.26 89 1012.5
20260504220536 48 211 0.0 0.0 0.00 0.26 0.26 89 1012.5
20260504220335 48 211 0.0 0.0 0.00 0.26 0.26 89 1012.6
20260504220128 48 211 0.0 0.0 0.00 0.25 0.25 89 1012.6
20260504215918 48 211 0.0 3.0 0.00 0.25 0.25 89 1012.6
20260504215705 48 211 0.0 3.0 0.00 0.25 0.25 89 1012.6
20260504215501 48 211 0.0 3.0 0.00 0.25 0.25 89 1012.6
20260504215248 48 211 0.0 2.0 0.00 0.25 0.25 89 1012.6
20260504215041 48 211 0.0 0.0 0.00 0.25 0.25 89 1012.7
20260504214835 48 211 0.0 0.0 0.00 0.25 0.25 89 1012.7
20260504214623 48 211 0.0 1.0 0.00 0.25 0.25 89 1012.8
20260504214414 48 211 0.0 0.0 0.00 0.25 0.25 89 1012.8
20260504214212 48 211 0.0 0.0 0.00 0.25 0.25 89 1012.8
20260504214011 48 211 0.0 0.0 0.00 0.25 0.25 89 1012.8